User: anonymous   Login
Location: Niedergestelen
(46.3129°N, 7.7822°E)
Time: 04:28:27
(UTC+00:00)
Language:

CZ-2C DEB - Orbit

View from above orbital plane
View from above orbital plane
View from above satellite
View from above satellite

Ground track
Ground track

The orbit data is extracted from the following two-line orbital elements,

1 40288U 14066C   21169.41603085  .00000243  00000-0  10982-3 0  9997
2 40288  97.9745  76.5147 0183874 225.0673 133.5466 14.21150474344290
Epoch (UTC): 18 June 2021 09:59:05
Eccentricity: 0.0183874
inclination: 97.9745°
perigee height: 689 km
apogee height: 954 km
right ascension of ascending node: 76.5147°
argument of perigee: 225.0673°
revolutions per day: 14.21150474
mean anomaly at epoch: 133.5466°
orbit number at epoch: 34429

The dashed part of the orbit path shows where the satellite is in the earth's shadow,  

DLR